When you browse on this site, cookies collect data to enhance your experience and personalize the content and advertising you see.
Visit our Privacy Policy to learn more. By continuing to use the site, you agree to this use of cookies and data.
  • In Portugal
  • List of Countries
  • For 7 days
  • Water Temperature
  • Weather Map
  • Weather Widgets
  • user-avatar
    Login

    Hourly Weather Nizhniy Katruh

    Today, 21 August, Wednesday

    Time Temperature Precipitation Wind Pressure Humidity
    00:00 +15°C° 0 mm 1 mps 606 mmHg 69%
    01:00 +14°C° 0 mm 1 mps 606 mmHg 68%
    02:00 +14°C° 0 mm 1 mps 606 mmHg 68%
    03:00 +14°C° 0 mm 1 mps 606 mmHg 67%
    04:00 +14°C° 0 mm 1 mps 606 mmHg 65%
    05:00 +15°C° 0 mm 1 mps 607 mmHg 62%
    06:00 +16°C° 0 mm 1 mps 607 mmHg 60%
    07:00 +19°C° 0 mm 1 mps 608 mmHg 53%
    08:00 +21°C° 0 mm 1 mps 609 mmHg 47%
    09:00 +24°C° 0 mm 1 mps 610 mmHg 40%
    10:00 +24°C° 0 mm 2 mps 610 mmHg 40%
    11:00 +25°C° 0 mm 2 mps 610 mmHg 40%
    12:00 +26°C° 0 mm 3 mps 610 mmHg 40%
    13:00 +25°C° 0.1 mm 3 mps 609 mmHg 41%
    14:00 +25°C° 0.1 mm 3 mps 609 mmHg 43%
    15:00 +25°C° 0.1 mm 3 mps 609 mmHg 45%
    16:00 +24°C° 0 mm 2 mps 608 mmHg 50%
    17:00 +21°C° 0 mm 2 mps 607 mmHg 55%
    18:00 +21°C° 0 mm 1 mps 606 mmHg 60%
    19:00 +20°C° 0 mm 1 mps 606 mmHg 62%
    20:00 +18°C° 0 mm 1 mps 605 mmHg 64%
    21:00 +15°C° 0 mm 1 mps 605 mmHg 66%
    22:00 +15°C° 0 mm 1 mps 605 mmHg 67%
    23:00 +15°C° 0 mm 1 mps 604 mmHg 67%

    Tomorrow, 22 August, Thursday

    Time Temperature Precipitation Wind Pressure Humidity
    00:00 +15°C° 0 mm 1 mps 604 mmHg 68%
    01:00 +15°C° 0 mm 1 mps 604 mmHg 68%
    02:00 +14°C° 0 mm 1 mps 604 mmHg 69%
    03:00 +14°C° 0 mm 1 mps 604 mmHg 69%
    04:00 +15°C° 0 mm 1 mps 604 mmHg 68%
    05:00 +15°C° 0 mm 1 mps 604 mmHg 66%
    06:00 +16°C° 0 mm 1 mps 604 mmHg 65%
    07:00 +19°C° 0 mm 1 mps 605 mmHg 58%
    08:00 +21°C° 0 mm 1 mps 606 mmHg 50%
    09:00 +24°C° 0 mm 1 mps 607 mmHg 42%
    10:00 +24°C° 0 mm 2 mps 607 mmHg 42%
    11:00 +25°C° 0 mm 2 mps 607 mmHg 42%
    12:00 +26°C° 0 mm 3 mps 608 mmHg 41%
    13:00 +25°C° 0.1 mm 3 mps 607 mmHg 42%
    14:00 +25°C° 0.1 mm 3 mps 607 mmHg 42%
    15:00 +25°C° 0.1 mm 3 mps 606 mmHg 43%
    16:00 +24°C° 0.1 mm 2 mps 606 mmHg 48%
    17:00 +22°C° 0.1 mm 1 mps 605 mmHg 53%
    18:00 +21°C° 0.1 mm 1 mps 605 mmHg 58%
    19:00 +19°C° 0 mm 1 mps 604 mmHg 59%
    20:00 +18°C° 0 mm 1 mps 604 mmHg 61%
    21:00 +15°C° 0 mm 1 mps 604 mmHg 62%
    22:00 +15°C° 0 mm 1 mps 604 mmHg 63%
    23:00 +15°C° 0 mm 1 mps 604 mmHg 63%

    Day after tomorrow, 23 August, Friday

    Time Temperature Precipitation Wind Pressure Humidity
    00:00 +14°C° 0 mm 1 mps 604 mmHg 64%
    01:00 +14°C° 0 mm 1 mps 604 mmHg 64%
    02:00 +14°C° 0 mm 1 mps 604 mmHg 63%
    03:00 +14°C° 0 mm 1 mps 604 mmHg 63%
    04:00 +14°C° 0 mm 1 mps 604 mmHg 62%
    05:00 +15°C° 0 mm 1 mps 604 mmHg 62%
    06:00 +15°C° 0 mm 1 mps 604 mmHg 62%
    07:00 +18°C° 0 mm 1 mps 605 mmHg 54%
    08:00 +21°C° 0 mm 1 mps 606 mmHg 47%
    09:00 +23°C° 0 mm 2 mps 607 mmHg 40%
    10:00 +24°C° 0 mm 2 mps 607 mmHg 39%
    11:00 +24°C° 0 mm 3 mps 608 mmHg 38%
    12:00 +25°C° 0 mm 3 mps 608 mmHg 37%
    13:00 +25°C° 0.1 mm 3 mps 608 mmHg 37%
    14:00 +25°C° 0.1 mm 3 mps 607 mmHg 38%
    15:00 +25°C° 0.1 mm 3 mps 607 mmHg 38%
    16:00 +24°C° 0 mm 2 mps 606 mmHg 45%
    17:00 +21°C° 0 mm 2 mps 606 mmHg 51%
    18:00 +21°C° 0 mm 1 mps 605 mmHg 57%
    19:00 +19°C° 0 mm 1 mps 605 mmHg 58%
    20:00 +18°C° 0 mm 1 mps 605 mmHg 60%
    21:00 +15°C° 0 mm 1 mps 604 mmHg 61%
    22:00 +15°C° 0 mm 1 mps 604 mmHg 61%
    23:00 +15°C° 0 mm 1 mps 604 mmHg 61%

    24 August, Saturday

    Time Temperature Precipitation Wind Pressure Humidity
    00:00 +15°C° 0 mm 1 mps 604 mmHg 62%
    01:00 +14°C° 0 mm 1 mps 604 mmHg 62%
    02:00 +14°C° 0 mm 1 mps 604 mmHg 63%
    03:00 +14°C° 0 mm 1 mps 604 mmHg 63%
    04:00 +14°C° 0 mm 1 mps 604 mmHg 61%
    05:00 +15°C° 0 mm 1 mps 604 mmHg 59%
    06:00 +15°C° 0 mm 1 mps 605 mmHg 58%
    07:00 +18°C° 0 mm 1 mps 606 mmHg 50%
    08:00 +21°C° 0 mm 1 mps 607 mmHg 42%
    09:00 +23°C° 0 mm 2 mps 608 mmHg 35%
    10:00 +24°C° 0 mm 2 mps 608 mmHg 35%
    11:00 +24°C° 0 mm 3 mps 608 mmHg 36%
    12:00 +25°C° 0 mm 4 mps 608 mmHg 37%
    13:00 +25°C° 0.2 mm 3 mps 608 mmHg 38%
    14:00 +24°C° 0.2 mm 3 mps 607 mmHg 40%
    15:00 +24°C° 0.2 mm 2 mps 607 mmHg 42%
    16:00 +21°C° 0.2 mm 2 mps 607 mmHg 48%
    17:00 +21°C° 0.2 mm 1 mps 606 mmHg 55%
    18:00 +20°C° 0.2 mm 1 mps 606 mmHg 61%
    19:00 +18°C° 0 mm 1 mps 606 mmHg 62%
    20:00 +16°C° 0 mm 1 mps 606 mmHg 63%
    21:00 +15°C° 0 mm 1 mps 605 mmHg 65%
    22:00 +14°C° 0 mm 1 mps 605 mmHg 64%
    23:00 +14°C° 0 mm 1 mps 605 mmHg 64%

    25 August, Sunday

    Time Temperature Precipitation Wind Pressure Humidity
    00:00 +14°C° 0 mm 1 mps 605 mmHg 64%
    01:00 +14°C° 0.1 mm 1 mps 605 mmHg 66%
    02:00 +14°C° 0.1 mm 1 mps 605 mmHg 69%
    03:00 +14°C° 0.1 mm 2 mps 605 mmHg 71%
    04:00 +14°C° 0.1 mm 2 mps 605 mmHg 72%
    05:00 +15°C° 0.1 mm 1 mps 605 mmHg 74%
    06:00 +15°C° 0.1 mm 1 mps 606 mmHg 75%
    07:00 +16°C° 0 mm 1 mps 606 mmHg 69%
    08:00 +18°C° 0 mm 2 mps 607 mmHg 62%
    09:00 +19°C° 0 mm 2 mps 608 mmHg 56%
    10:00 +20°C° 0.4 mm 2 mps 608 mmHg 53%
    11:00 +20°C° 0.4 mm 3 mps 608 mmHg 51%
    12:00 +21°C° 0.4 mm 3 mps 608 mmHg 48%
    13:00 +21°C° 0.2 mm 3 mps 608 mmHg 47%
    14:00 +21°C° 0.2 mm 3 mps 607 mmHg 46%
    15:00 +21°C° 0.2 mm 3 mps 607 mmHg 45%
    16:00 +20°C° 0 mm 2 mps 607 mmHg 49%
    17:00 +19°C° 0 mm 2 mps 606 mmHg 53%
    18:00 +19°C° 0 mm 1 mps 606 mmHg 58%
    19:00 +16°C° 0 mm 1 mps 605 mmHg 58%
    20:00 +15°C° 0 mm 1 mps 605 mmHg 59%
    21:00 +13°C° 0 mm 1 mps 604 mmHg 60%
    22:00 +13°C° 0 mm 1 mps 604 mmHg 59%
    23:00 +13°C° 0 mm 1 mps 604 mmHg 58%

    26 August, Monday

    Time Temperature Precipitation Wind Pressure Humidity
    00:00 +12°C° 0 mm 1 mps 604 mmHg 57%
    01:00 +12°C° 0 mm 1 mps 604 mmHg 55%
    02:00 +13°C° 0 mm 1 mps 604 mmHg 54%
    03:00 +13°C° 0 mm 1 mps 604 mmHg 52%
    04:00 +13°C° 0 mm 1 mps 604 mmHg 54%
    05:00 +13°C° 0 mm 1 mps 605 mmHg 57%
    06:00 +14°C° 0 mm 1 mps 605 mmHg 59%
    07:00 +16°C° 0 mm 1 mps 606 mmHg 54%
    08:00 +19°C° 0 mm 1 mps 607 mmHg 50%
    09:00 +21°C° 0 mm 1 mps 608 mmHg 45%
    10:00 +21°C° 0.1 mm 2 mps 608 mmHg 45%
    11:00 +21°C° 0.1 mm 2 mps 608 mmHg 45%
    12:00 +23°C° 0.1 mm 2 mps 608 mmHg 45%
    13:00 +23°C° 0.5 mm 2 mps 608 mmHg 48%
    14:00 +21°C° 0.5 mm 2 mps 608 mmHg 51%
    15:00 +20°C° 0.5 mm 2 mps 607 mmHg 54%
    16:00 +19°C° 0.3 mm 2 mps 607 mmHg 60%
    17:00 +19°C° 0.3 mm 1 mps 607 mmHg 66%
    18:00 +18°C° 0.3 mm 1 mps 606 mmHg 72%
    19:00 +16°C° 0.1 mm 1 mps 606 mmHg 75%
    20:00 +15°C° 0.1 mm 1 mps 606 mmHg 78%
    21:00 +13°C° 0.1 mm 1 mps 607 mmHg 81%
    22:00 +14°C° 0 mm 1 mps 607 mmHg 81%
    23:00 +14°C° 0 mm 1 mps 607 mmHg 80%
    Show more